Погода в Высоцке

Украина / Ровненская область     51°43′18″N   26°39′03″E
темп.,
°C
ветер,
м/с
пор.,
м/с
влажн.,
%
обл.,
%
осадки,
мм/ч
давл.,
гПа
погр.,
м
27 ноября, сб
сб2723:00+4юв51482100 0.0 998755
02:00+6юв51488100 2.2 9941165
05:00+6ююв41094100 1.3 991740
08:00+5ююз3891100 1.6 991437
11:00+7юз7117986 0.1 9931045
14:00+4юз61280100 0.1 995828
17:00+3зюз51177100 0.0 9981037
20:00+3зюз497489 0.0 1000909
28 ноября, вс
вс2823:00+1юз25865 0.0 1002119
02:000ю239157 0.0 100244
05:00+2ююв1487100 0.0 1002147
08:00+3юв2385100 0.0 100297
11:00+3вюв2594100 1.4 1002165
14:00+5в2689100 3.8 1001204
17:00+4вюв3894100 3.3 999257
20:00+5юв2893100 3.4 998235
29 ноября, пн
пн2923:00+4ююв3693100 0.0 997125
02:00+4юв2692100 0.0 995108
05:00+4вюв3892100 0.0 992173
08:00+5юв3996100 0.0 990288
11:00+7ю3997100 0.1 988467
14:00+2з61395100 1.3 989600
17:00+2з71279100 0.0 9901046
20:00+2зюз71481100 0.1 9911300
30 ноября, вт
вт3023:00+1зюз81695100 0.3 9911254
02:00+1зюз81792100 0.5 9921454
05:00+1зюз91891100 0.4 9931426
08:00+1з81696100 1.1 9951263
11:00+2з81475100 0.1 9991318
14:00+1з71372100 0.2 10001210
17:00−1з61274100 0.0 1001856
20:00−1зюз4119599 0.1 1001814
1 декабря, ср
ср123:00−1зюз41085100 0.1 1001754
02:000юз4883100 0.1 1000783
05:00−1ююз3996100 0.9 999493
08:00−1юз269680 1.1 999327
11:00+1зсз258368 0.0 1002568
14:00+1з3578100 0.0 1002791
17:00+1ююз2798100 0.2 1003469
20:00+1юз499599 0.3 1002587